Year,Month,Day,Hour,Minute,Value (Times are PST for temperature in C)
2018,07,16,00,00,18.30
2018,07,16,00,01,18.20
2018,07,16,00,02,18.20
2018,07,16,00,03,18.20
2018,07,16,00,04,18.20
2018,07,16,00,05,18.20
2018,07,16,00,06,18.20
2018,07,16,00,07,18.20
2018,07,16,00,08,18.20
2018,07,16,00,09,18.10
2018,07,16,00,10,18.10
2018,07,16,00,11,18.10
2018,07,16,00,12,18.10
2018,07,16,00,13,18.00
2018,07,16,00,14,17.90
2018,07,16,00,15,17.90
2018,07,16,00,16,17.90
2018,07,16,00,17,17.90
2018,07,16,00,18,17.80
2018,07,16,00,19,17.80
2018,07,16,00,20,17.80
2018,07,16,00,21,17.80
2018,07,16,00,22,17.70
2018,07,16,00,23,17.70
2018,07,16,00,24,17.70
2018,07,16,00,25,17.70
2018,07,16,00,26,17.70
2018,07,16,00,27,17.70
2018,07,16,00,28,17.70
2018,07,16,00,29,17.70
2018,07,16,00,30,17.80
2018,07,16,00,31,17.80
2018,07,16,00,32,17.80
2018,07,16,00,33,17.80
2018,07,16,00,34,17.90
2018,07,16,00,35,17.90
2018,07,16,00,36,17.90
2018,07,16,00,37,17.90
2018,07,16,00,38,17.90
2018,07,16,00,39,17.90
2018,07,16,00,40,17.90
2018,07,16,00,41,17.90
2018,07,16,00,42,17.90
2018,07,16,00,43,17.80
2018,07,16,00,44,17.80
2018,07,16,00,45,17.80
2018,07,16,00,46,17.80
2018,07,16,00,47,17.80
2018,07,16,00,48,17.70
2018,07,16,00,49,17.70
2018,07,16,00,50,17.70
2018,07,16,00,51,17.70
2018,07,16,00,52,17.70
2018,07,16,00,53,17.70
2018,07,16,00,54,17.60
2018,07,16,00,55,17.60
2018,07,16,00,56,17.60
2018,07,16,00,57,17.70
2018,07,16,00,58,17.70
2018,07,16,00,59,17.70
2018,07,16,01,00,17.70
2018,07,16,01,01,17.70
2018,07,16,01,02,17.70
2018,07,16,01,03,17.70
2018,07,16,01,04,17.70
2018,07,16,01,05,17.70
2018,07,16,01,06,17.70
2018,07,16,01,07,17.70
2018,07,16,01,08,17.70
2018,07,16,01,09,17.80
2018,07,16,01,10,17.80
2018,07,16,01,11,17.80
2018,07,16,01,12,17.70
2018,07,16,01,13,17.70
2018,07,16,01,14,17.70
2018,07,16,01,15,17.70
2018,07,16,01,16,17.60
2018,07,16,01,17,17.60
2018,07,16,01,18,17.60
2018,07,16,01,19,17.50
2018,07,16,01,20,17.50
2018,07,16,01,21,17.50
2018,07,16,01,22,17.50
2018,07,16,01,23,17.40
2018,07,16,01,24,17.40
2018,07,16,01,25,17.40
2018,07,16,01,26,17.40
2018,07,16,01,27,17.30
2018,07,16,01,28,17.30
2018,07,16,01,29,17.20
2018,07,16,01,30,17.10
2018,07,16,01,31,17.00
2018,07,16,01,32,17.00
2018,07,16,01,33,16.90
2018,07,16,01,34,16.90
2018,07,16,01,35,16.80
2018,07,16,01,36,16.80
2018,07,16,01,37,16.80
2018,07,16,01,38,16.70
2018,07,16,01,39,16.70
2018,07,16,01,40,16.70
2018,07,16,01,41,16.70
2018,07,16,01,42,16.70
2018,07,16,01,43,16.70
2018,07,16,01,44,16.60
2018,07,16,01,45,16.60
2018,07,16,01,46,16.60
2018,07,16,01,47,16.40
2018,07,16,01,48,16.40
2018,07,16,01,49,16.40
2018,07,16,01,50,16.40
2018,07,16,01,51,16.40
2018,07,16,01,52,16.40
2018,07,16,01,53,16.30
2018,07,16,01,54,16.30
2018,07,16,01,55,16.30
2018,07,16,01,56,16.30
2018,07,16,01,57,16.30
2018,07,16,01,58,16.20
2018,07,16,01,59,16.20
2018,07,16,02,00,16.20
2018,07,16,02,01,16.10
2018,07,16,02,02,16.10
2018,07,16,02,03,16.10
2018,07,16,02,04,16.10
2018,07,16,02,05,16.10
2018,07,16,02,06,16.10
2018,07,16,02,07,16.10
2018,07,16,02,08,16.10
2018,07,16,02,09,16.10
2018,07,16,02,10,16.10
2018,07,16,02,11,16.10
2018,07,16,02,12,16.20
2018,07,16,02,13,16.20
2018,07,16,02,14,16.20
2018,07,16,02,15,16.20
2018,07,16,02,16,16.20
2018,07,16,02,17,16.20
2018,07,16,02,18,16.20
2018,07,16,02,19,16.20
2018,07,16,02,20,16.20
2018,07,16,02,21,16.20
2018,07,16,02,22,16.20
2018,07,16,02,23,16.20
2018,07,16,02,24,16.20
2018,07,16,02,25,16.20
2018,07,16,02,26,16.20
2018,07,16,02,27,16.20
2018,07,16,02,28,16.20
2018,07,16,02,29,16.20
2018,07,16,02,30,16.20
2018,07,16,02,31,16.30
2018,07,16,02,32,16.30
2018,07,16,02,33,16.30
2018,07,16,02,34,16.30
2018,07,16,02,35,16.30
2018,07,16,02,36,16.30
2018,07,16,02,37,16.20
2018,07,16,02,38,16.20
2018,07,16,02,39,16.20
2018,07,16,02,40,16.10
2018,07,16,02,41,16.10
2018,07,16,02,42,16.10
2018,07,16,02,43,16.10
2018,07,16,02,44,16.10
2018,07,16,02,45,16.10
2018,07,16,02,46,16.10
2018,07,16,02,47,16.10
2018,07,16,02,48,16.10
2018,07,16,02,49,16.10
2018,07,16,02,50,16.10
2018,07,16,02,51,16.10
2018,07,16,02,52,16.10
2018,07,16,02,53,16.10
2018,07,16,02,54,16.10
2018,07,16,02,55,16.10
2018,07,16,02,56,16.10
2018,07,16,02,57,16.10
2018,07,16,02,58,16.10
2018,07,16,02,59,16.10
2018,07,16,03,00,16.00
2018,07,16,03,01,15.90
2018,07,16,03,02,15.90
2018,07,16,03,03,15.90
2018,07,16,03,04,15.80
2018,07,16,03,05,15.80
2018,07,16,03,06,15.80
2018,07,16,03,07,15.80
2018,07,16,03,08,15.80
2018,07,16,03,09,15.70
2018,07,16,03,10,15.70
2018,07,16,03,11,15.60
2018,07,16,03,12,15.60
2018,07,16,03,13,15.50
2018,07,16,03,14,15.50
2018,07,16,03,15,15.50
2018,07,16,03,16,15.40
2018,07,16,03,17,15.40
2018,07,16,03,18,15.40
2018,07,16,03,19,15.40
2018,07,16,03,20,15.40
2018,07,16,03,21,15.40
2018,07,16,03,22,15.40
2018,07,16,03,23,15.40
2018,07,16,03,24,15.40
2018,07,16,03,25,15.40
2018,07,16,03,26,15.40
2018,07,16,03,27,15.30
2018,07,16,03,28,15.30
2018,07,16,03,29,15.30
2018,07,16,03,30,15.30
2018,07,16,03,31,15.30
2018,07,16,03,32,15.30
2018,07,16,03,33,15.20
2018,07,16,03,34,15.20
2018,07,16,03,35,15.20
2018,07,16,03,36,15.20
2018,07,16,03,37,15.20
2018,07,16,03,38,15.10
2018,07,16,03,39,15.10
2018,07,16,03,40,15.10
2018,07,16,03,41,15.10
2018,07,16,03,42,15.00
2018,07,16,03,43,15.00
2018,07,16,03,44,14.90
2018,07,16,03,45,14.90
2018,07,16,03,46,14.90
2018,07,16,03,47,14.90
2018,07,16,03,48,14.80
2018,07,16,03,49,14.80
2018,07,16,03,50,14.80
2018,07,16,03,51,14.80
2018,07,16,03,52,14.80
2018,07,16,03,53,14.80
2018,07,16,03,54,14.80
2018,07,16,03,55,14.80
2018,07,16,03,56,14.70
2018,07,16,03,57,14.70
2018,07,16,03,58,14.70
2018,07,16,03,59,14.60
2018,07,16,04,00,14.60
2018,07,16,04,01,14.60
2018,07,16,04,02,14.60
2018,07,16,04,03,14.60
2018,07,16,04,04,14.60
2018,07,16,04,05,14.60
2018,07,16,04,06,14.60
2018,07,16,04,07,14.70
2018,07,16,04,08,14.60
2018,07,16,04,09,14.60
2018,07,16,04,10,14.60
2018,07,16,04,11,14.50
2018,07,16,04,12,14.50
2018,07,16,04,13,14.40
2018,07,16,04,14,14.40
2018,07,16,04,15,14.40
2018,07,16,04,16,14.30
2018,07,16,04,17,14.20
2018,07,16,04,18,14.20
2018,07,16,04,19,14.20
2018,07,16,04,20,14.20
2018,07,16,04,21,14.10
2018,07,16,04,22,14.00
2018,07,16,04,23,14.00
2018,07,16,04,24,13.90
2018,07,16,04,25,13.90
2018,07,16,04,26,13.80
2018,07,16,04,27,13.80
2018,07,16,04,28,13.70
2018,07,16,04,29,13.70
2018,07,16,04,30,13.70
2018,07,16,04,31,13.60
2018,07,16,04,32,13.60
2018,07,16,04,33,13.60
2018,07,16,04,34,13.50
2018,07,16,04,35,13.50
2018,07,16,04,36,13.50
2018,07,16,04,37,13.50
2018,07,16,04,38,13.40
2018,07,16,04,39,13.40
2018,07,16,04,40,13.50
2018,07,16,04,41,13.50
2018,07,16,04,42,13.50
2018,07,16,04,43,13.50
2018,07,16,04,44,13.50
2018,07,16,04,45,13.50
2018,07,16,04,46,13.50
2018,07,16,04,47,13.50
2018,07,16,04,48,13.50
2018,07,16,04,49,13.50
2018,07,16,04,50,13.50
2018,07,16,04,51,13.50
2018,07,16,04,52,13.50
2018,07,16,04,53,13.50
2018,07,16,04,54,13.50
2018,07,16,04,55,13.50
2018,07,16,04,56,13.40
2018,07,16,04,57,13.40
2018,07,16,04,58,13.40
2018,07,16,04,59,13.40
2018,07,16,05,00,13.40
2018,07,16,05,01,13.40
2018,07,16,05,02,13.40
2018,07,16,05,03,13.40
2018,07,16,05,04,13.40
2018,07,16,05,05,13.40
2018,07,16,05,06,13.40
2018,07,16,05,07,13.30
2018,07,16,05,08,13.30
2018,07,16,05,09,13.30
2018,07,16,05,10,13.30
2018,07,16,05,11,13.30
2018,07,16,05,12,13.30
2018,07,16,05,13,13.30
2018,07,16,05,14,13.30
2018,07,16,05,15,13.30
2018,07,16,05,16,13.30
2018,07,16,05,17,13.30
2018,07,16,05,18,13.30
2018,07,16,05,19,13.30
2018,07,16,05,20,13.30
2018,07,16,05,21,13.30
2018,07,16,05,22,13.30
2018,07,16,05,23,13.30
2018,07,16,05,24,13.30
2018,07,16,05,25,13.30
2018,07,16,05,26,13.30
2018,07,16,05,27,13.40
2018,07,16,05,28,13.40
2018,07,16,05,29,13.30
2018,07,16,05,30,13.30
2018,07,16,05,31,13.30
2018,07,16,05,32,13.30
2018,07,16,05,33,13.30
2018,07,16,05,34,13.30
2018,07,16,05,35,13.30
2018,07,16,05,36,13.30
2018,07,16,05,37,13.30
2018,07,16,05,38,13.30
2018,07,16,05,39,13.30
2018,07,16,05,40,13.30
2018,07,16,05,41,13.30
2018,07,16,05,42,13.30
2018,07,16,05,43,13.30
2018,07,16,05,44,13.30
2018,07,16,05,45,13.40
2018,07,16,05,46,13.40
2018,07,16,05,47,13.40
2018,07,16,05,48,13.40
2018,07,16,05,49,13.40
2018,07,16,05,50,13.40
2018,07,16,05,51,13.50
2018,07,16,05,52,13.50
2018,07,16,05,53,13.60
2018,07,16,05,54,13.60
2018,07,16,05,55,13.60
2018,07,16,05,56,13.70
2018,07,16,05,57,13.70
2018,07,16,05,58,13.70
2018,07,16,05,59,13.70
2018,07,16,06,00,13.70
2018,07,16,06,01,13.70
2018,07,16,06,02,13.70
2018,07,16,06,03,13.70
2018,07,16,06,04,13.80
2018,07,16,06,05,13.80
2018,07,16,06,06,13.80
2018,07,16,06,07,13.80
2018,07,16,06,08,13.90
2018,07,16,06,09,13.90
2018,07,16,06,10,13.90
2018,07,16,06,11,13.90
2018,07,16,06,12,13.90
2018,07,16,06,13,14.00
2018,07,16,06,14,14.00
2018,07,16,06,15,14.10
2018,07,16,06,16,14.20
2018,07,16,06,17,14.30
2018,07,16,06,18,14.30
2018,07,16,06,19,14.30
2018,07,16,06,20,14.40
2018,07,16,06,21,14.40
2018,07,16,06,22,14.50
2018,07,16,06,23,14.50
2018,07,16,06,24,14.60
2018,07,16,06,25,14.60
2018,07,16,06,26,14.70
2018,07,16,06,27,14.70
2018,07,16,06,28,14.70
2018,07,16,06,29,14.80
2018,07,16,06,30,14.80
2018,07,16,06,31,14.90
2018,07,16,06,32,15.00
2018,07,16,06,33,15.10
2018,07,16,06,34,15.20
2018,07,16,06,35,15.20
2018,07,16,06,36,15.30
2018,07,16,06,37,15.30
2018,07,16,06,38,15.30
2018,07,16,06,39,15.30
2018,07,16,06,40,15.30
2018,07,16,06,41,15.40
2018,07,16,06,42,15.50
2018,07,16,06,43,15.60
2018,07,16,06,44,15.60
2018,07,16,06,45,15.70
2018,07,16,06,46,15.70
2018,07,16,06,47,15.80
2018,07,16,06,48,15.80
2018,07,16,06,49,15.80
2018,07,16,06,50,16.00
2018,07,16,06,51,16.10
2018,07,16,06,52,16.20
2018,07,16,06,53,16.30
2018,07,16,06,54,16.40
2018,07,16,06,55,16.50
2018,07,16,06,56,16.60
2018,07,16,06,57,16.70
2018,07,16,06,58,16.80
2018,07,16,06,59,16.90
2018,07,16,07,00,16.90
2018,07,16,07,01,17.00
2018,07,16,07,02,17.00
2018,07,16,07,03,17.10
2018,07,16,07,04,17.20
2018,07,16,07,05,17.20
2018,07,16,07,06,17.30
2018,07,16,07,07,17.30
2018,07,16,07,08,17.40
2018,07,16,07,09,17.50
2018,07,16,07,10,17.50
2018,07,16,07,11,17.50
2018,07,16,07,12,17.60
2018,07,16,07,13,17.60
2018,07,16,07,14,17.70
2018,07,16,07,15,17.70
2018,07,16,07,16,17.70
2018,07,16,07,17,17.80
2018,07,16,07,18,17.90
2018,07,16,07,19,17.90
2018,07,16,07,20,18.00
2018,07,16,07,21,18.10
2018,07,16,07,22,18.20
2018,07,16,07,23,18.30
2018,07,16,07,24,18.40
2018,07,16,07,25,18.60
2018,07,16,07,26,18.80
2018,07,16,07,27,18.90
2018,07,16,07,28,18.90
2018,07,16,07,29,19.00
2018,07,16,07,30,19.10
2018,07,16,07,31,19.20
2018,07,16,07,32,19.30
2018,07,16,07,33,19.40
2018,07,16,07,34,19.50
2018,07,16,07,35,19.60
2018,07,16,07,36,19.80
2018,07,16,07,37,19.90
2018,07,16,07,38,19.90
2018,07,16,07,39,20.00
2018,07,16,07,40,20.10
2018,07,16,07,41,20.20
2018,07,16,07,42,20.20
2018,07,16,07,43,20.40
2018,07,16,07,44,20.50
2018,07,16,07,45,20.60
2018,07,16,07,46,20.70
2018,07,16,07,47,20.70
2018,07,16,07,48,20.80
2018,07,16,07,49,20.80
2018,07,16,07,50,20.80
2018,07,16,07,51,20.80
2018,07,16,07,52,20.80
2018,07,16,07,53,20.80
2018,07,16,07,54,20.80
2018,07,16,07,55,20.90
2018,07,16,07,56,20.90
2018,07,16,07,57,21.00
2018,07,16,07,58,21.00
2018,07,16,07,59,21.10
2018,07,16,08,00,21.20
2018,07,16,08,01,21.30
2018,07,16,08,02,21.30
2018,07,16,08,03,21.30
2018,07,16,08,04,21.30
2018,07,16,08,05,21.30
2018,07,16,08,06,21.40
2018,07,16,08,07,21.40
2018,07,16,08,08,21.40
2018,07,16,08,09,21.50
2018,07,16,08,10,21.60
2018,07,16,08,11,21.60
2018,07,16,08,12,21.60
2018,07,16,08,13,21.60
2018,07,16,08,14,21.60
2018,07,16,08,15,21.70
2018,07,16,08,16,21.80
2018,07,16,08,17,21.80
2018,07,16,08,18,21.90
2018,07,16,08,19,22.00
2018,07,16,08,20,22.00
2018,07,16,08,21,22.10
2018,07,16,08,22,22.20
2018,07,16,08,23,22.30
2018,07,16,08,24,22.30
2018,07,16,08,25,22.40
2018,07,16,08,26,22.50
2018,07,16,08,27,22.50
2018,07,16,08,28,22.60
2018,07,16,08,29,22.60
2018,07,16,08,30,22.60
2018,07,16,08,31,22.60
2018,07,16,08,32,22.70
2018,07,16,08,33,22.80
2018,07,16,08,34,22.80
2018,07,16,08,35,22.90
2018,07,16,08,36,22.90
2018,07,16,08,37,22.90
2018,07,16,08,38,23.00
2018,07,16,08,39,23.10
2018,07,16,08,40,23.10
2018,07,16,08,41,23.10
2018,07,16,08,42,23.20
2018,07,16,08,43,23.20
2018,07,16,08,44,23.30
2018,07,16,08,45,23.30
2018,07,16,08,46,23.40
2018,07,16,08,47,23.60
2018,07,16,08,48,23.60
2018,07,16,08,49,23.60
2018,07,16,08,50,23.60
2018,07,16,08,51,23.60
2018,07,16,08,52,23.60
2018,07,16,08,53,23.60
2018,07,16,08,54,23.70
2018,07,16,08,55,23.70
2018,07,16,08,56,23.60
2018,07,16,08,57,23.70
2018,07,16,08,58,23.70
2018,07,16,08,59,23.70
2018,07,16,09,00,23.70
2018,07,16,09,01,23.70
2018,07,16,09,02,23.70
2018,07,16,09,03,23.70
2018,07,16,09,04,23.70
2018,07,16,09,05,23.80
2018,07,16,09,06,23.90
2018,07,16,09,07,24.00
2018,07,16,09,08,24.10
2018,07,16,09,09,24.10
2018,07,16,09,10,24.10
2018,07,16,09,11,24.10
2018,07,16,09,12,24.20
2018,07,16,09,13,24.30
2018,07,16,09,14,24.30
2018,07,16,09,15,24.40
2018,07,16,09,16,24.40
2018,07,16,09,17,24.40
2018,07,16,09,18,24.50
2018,07,16,09,19,24.60
2018,07,16,09,20,24.60
2018,07,16,09,21,24.60
2018,07,16,09,22,24.60
2018,07,16,09,23,24.60
2018,07,16,09,24,24.60
2018,07,16,09,25,24.60
2018,07,16,09,26,24.50
2018,07,16,09,27,24.40
2018,07,16,09,28,24.40
2018,07,16,09,29,24.50
2018,07,16,09,30,24.50
2018,07,16,09,31,24.40
2018,07,16,09,32,24.40
2018,07,16,09,33,24.40
2018,07,16,09,34,24.40
2018,07,16,09,35,24.30
2018,07,16,09,36,24.10
2018,07,16,09,37,23.90
2018,07,16,09,38,23.70
2018,07,16,09,39,23.40
2018,07,16,09,40,23.30
2018,07,16,09,41,23.10
2018,07,16,09,42,22.80
2018,07,16,09,43,22.50
2018,07,16,09,44,22.30
2018,07,16,09,45,22.10
2018,07,16,09,46,22.10
2018,07,16,09,47,22.00
2018,07,16,09,48,22.10
2018,07,16,09,49,22.20
2018,07,16,09,50,22.40
2018,07,16,09,51,22.60
2018,07,16,09,52,22.70
2018,07,16,09,53,22.80
2018,07,16,09,54,23.00
2018,07,16,09,55,23.10
2018,07,16,09,56,23.30
2018,07,16,09,57,23.40
2018,07,16,09,58,23.60
2018,07,16,09,59,23.70
2018,07,16,10,00,23.70
2018,07,16,10,01,23.50
2018,07,16,10,02,23.30
2018,07,16,10,03,23.10
2018,07,16,10,04,23.00
2018,07,16,10,05,22.90
2018,07,16,10,06,22.90
2018,07,16,10,07,22.90
2018,07,16,10,08,22.90
2018,07,16,10,09,22.90
2018,07,16,10,10,22.90
2018,07,16,10,11,22.90
2018,07,16,10,12,22.90
2018,07,16,10,13,22.90
2018,07,16,10,14,23.00
2018,07,16,10,15,23.10
2018,07,16,10,16,23.10
2018,07,16,10,17,23.20
2018,07,16,10,18,23.20
2018,07,16,10,19,23.30
2018,07,16,10,20,23.20
2018,07,16,10,21,23.10
2018,07,16,10,22,23.00
2018,07,16,10,23,22.90
2018,07,16,10,24,22.90
2018,07,16,10,25,22.90
2018,07,16,10,26,23.00
2018,07,16,10,27,23.20
2018,07,16,10,28,23.30
2018,07,16,10,29,23.40
2018,07,16,10,30,23.60
2018,07,16,10,31,23.70
2018,07,16,10,32,23.90
2018,07,16,10,33,24.00
2018,07,16,10,34,24.10
2018,07,16,10,35,24.10
2018,07,16,10,36,24.10
2018,07,16,10,37,24.10
2018,07,16,10,38,24.10
2018,07,16,10,39,24.20
2018,07,16,10,40,24.20
2018,07,16,10,41,24.20
2018,07,16,10,42,24.10
2018,07,16,10,43,24.00
2018,07,16,10,44,24.00
2018,07,16,10,45,24.10
2018,07,16,10,46,24.10
2018,07,16,10,47,24.10
2018,07,16,10,48,24.10
2018,07,16,10,49,24.10
2018,07,16,10,50,24.10
2018,07,16,10,51,24.20
2018,07,16,10,52,24.30
2018,07,16,10,53,24.40
2018,07,16,10,54,24.50
2018,07,16,10,55,24.60
2018,07,16,10,56,24.80
2018,07,16,10,57,25.00
2018,07,16,10,58,25.20
2018,07,16,10,59,25.40
2018,07,16,11,00,25.50
2018,07,16,11,01,25.60
2018,07,16,11,02,25.80
2018,07,16,11,03,26.00
2018,07,16,11,04,26.10
2018,07,16,11,05,26.20
2018,07,16,11,06,26.20
2018,07,16,11,07,26.20
2018,07,16,11,08,26.30
2018,07,16,11,09,26.30
2018,07,16,11,10,26.30
2018,07,16,11,11,26.40
2018,07,16,11,12,26.40
2018,07,16,11,13,26.60
2018,07,16,11,14,26.60
2018,07,16,11,15,26.60
2018,07,16,11,16,26.40
2018,07,16,11,17,26.30
2018,07,16,11,18,26.30
2018,07,16,11,19,26.20
2018,07,16,11,20,26.20
2018,07,16,11,21,26.30
2018,07,16,11,22,26.30
2018,07,16,11,23,26.40
2018,07,16,11,24,26.50
2018,07,16,11,25,26.60
2018,07,16,11,26,26.60
2018,07,16,11,27,26.60
2018,07,16,11,28,26.60
2018,07,16,11,29,26.70
2018,07,16,11,30,26.80
2018,07,16,11,31,26.90
2018,07,16,11,32,26.90
2018,07,16,11,33,27.10
2018,07,16,11,34,27.10
2018,07,16,11,35,27.20
2018,07,16,11,36,27.30
2018,07,16,11,37,27.30
2018,07,16,11,38,27.30
2018,07,16,11,39,27.30
2018,07,16,11,40,27.30
2018,07,16,11,41,27.30
2018,07,16,11,42,27.30
2018,07,16,11,43,27.30
2018,07,16,11,44,27.20
2018,07,16,11,45,27.10
2018,07,16,11,46,26.90
2018,07,16,11,47,26.70
2018,07,16,11,48,26.60
2018,07,16,11,49,26.50
2018,07,16,11,50,26.40
2018,07,16,11,51,26.30
2018,07,16,11,52,26.10
2018,07,16,11,53,26.10
2018,07,16,11,54,26.00
2018,07,16,11,55,26.00
2018,07,16,11,56,26.10
2018,07,16,11,57,26.20
2018,07,16,11,58,26.20
2018,07,16,11,59,26.20
2018,07,16,12,00,26.10
2018,07,16,12,01,26.00
2018,07,16,12,02,26.00
2018,07,16,12,03,26.00
2018,07,16,12,04,25.90
2018,07,16,12,05,25.90
2018,07,16,12,06,25.80
2018,07,16,12,07,25.70
2018,07,16,12,08,25.50
2018,07,16,12,09,25.50
2018,07,16,12,10,25.50
2018,07,16,12,11,25.50
2018,07,16,12,12,25.40
2018,07,16,12,13,25.40
2018,07,16,12,14,25.40
2018,07,16,12,15,25.40
2018,07,16,12,16,25.20
2018,07,16,12,17,25.00
2018,07,16,12,18,24.80
2018,07,16,12,19,24.60
2018,07,16,12,20,24.40
2018,07,16,12,21,24.20
2018,07,16,12,22,24.10
2018,07,16,12,23,23.90
2018,07,16,12,24,23.80
2018,07,16,12,25,23.80
2018,07,16,12,26,23.80
2018,07,16,12,27,23.90
2018,07,16,12,28,24.00
2018,07,16,12,29,24.10
2018,07,16,12,30,24.10
2018,07,16,12,31,24.10
2018,07,16,12,32,24.20
2018,07,16,12,33,24.30
2018,07,16,12,34,24.40
2018,07,16,12,35,24.60
2018,07,16,12,36,24.70
2018,07,16,12,37,24.90
2018,07,16,12,38,24.90
2018,07,16,12,39,24.90
2018,07,16,12,40,24.90
2018,07,16,12,41,24.80
2018,07,16,12,42,24.80
2018,07,16,12,43,24.80
2018,07,16,12,44,24.80
2018,07,16,12,45,24.70
2018,07,16,12,46,24.70
2018,07,16,12,47,24.60
2018,07,16,12,48,24.40
2018,07,16,12,49,24.30
2018,07,16,12,50,24.10
2018,07,16,12,51,24.10
2018,07,16,12,52,24.00
2018,07,16,12,53,23.90
2018,07,16,12,54,23.70
2018,07,16,12,55,23.70
2018,07,16,12,56,23.70
2018,07,16,12,57,23.70
2018,07,16,12,58,23.70
2018,07,16,12,59,23.70
2018,07,16,13,00,23.70
2018,07,16,13,01,23.70
2018,07,16,13,02,23.70
2018,07,16,13,03,23.70
2018,07,16,13,04,23.70
2018,07,16,13,05,23.70
2018,07,16,13,06,23.80
2018,07,16,13,07,24.00
2018,07,16,13,08,24.10
2018,07,16,13,09,24.20
2018,07,16,13,10,24.30
2018,07,16,13,11,24.40
2018,07,16,13,12,24.40
2018,07,16,13,13,24.50
2018,07,16,13,14,24.50
2018,07,16,13,15,24.60
2018,07,16,13,16,24.60
2018,07,16,13,17,24.80
2018,07,16,13,18,24.90
2018,07,16,13,19,25.10
2018,07,16,13,20,25.20
2018,07,16,13,21,25.40
2018,07,16,13,22,25.60
2018,07,16,13,23,25.80
2018,07,16,13,24,25.90
2018,07,16,13,25,26.00
2018,07,16,13,26,26.00
2018,07,16,13,27,26.00
2018,07,16,13,28,26.10
2018,07,16,13,29,26.20
2018,07,16,13,30,26.30
2018,07,16,13,31,26.40
2018,07,16,13,32,26.50
2018,07,16,13,33,26.50
2018,07,16,13,34,26.40
2018,07,16,13,35,26.40
2018,07,16,13,36,26.30
2018,07,16,13,37,26.20
2018,07,16,13,38,26.20
2018,07,16,13,39,26.30
2018,07,16,13,40,26.40
2018,07,16,13,41,26.30
2018,07,16,13,42,26.20
2018,07,16,13,43,26.20
2018,07,16,13,44,26.30
2018,07,16,13,45,26.40
2018,07,16,13,46,26.40
2018,07,16,13,47,26.30
2018,07,16,13,48,26.20
2018,07,16,13,49,26.20
2018,07,16,13,50,26.30
2018,07,16,13,51,26.30
2018,07,16,13,52,26.30
2018,07,16,13,53,26.30
2018,07,16,13,54,26.10
2018,07,16,13,55,25.80
2018,07,16,13,56,25.60
2018,07,16,13,57,25.50
2018,07,16,13,58,25.50
2018,07,16,13,59,25.40
2018,07,16,14,00,25.40
2018,07,16,14,01,25.40
2018,07,16,14,02,25.40
2018,07,16,14,03,25.40
2018,07,16,14,04,25.50
2018,07,16,14,05,25.50
2018,07,16,14,06,25.60
2018,07,16,14,07,25.60
2018,07,16,14,08,25.80
2018,07,16,14,09,25.90
2018,07,16,14,10,26.00
2018,07,16,14,11,26.20
2018,07,16,14,12,26.30
2018,07,16,14,13,26.30
2018,07,16,14,14,26.40
2018,07,16,14,15,26.50
2018,07,16,14,16,26.60
2018,07,16,14,17,26.60
2018,07,16,14,18,26.60
2018,07,16,14,19,26.60
2018,07,16,14,20,26.50
2018,07,16,14,21,26.40
2018,07,16,14,22,26.40
2018,07,16,14,23,26.40
2018,07,16,14,24,26.40
2018,07,16,14,25,26.20
2018,07,16,14,26,26.10
2018,07,16,14,27,26.00
2018,07,16,14,28,26.00
2018,07,16,14,29,26.10
2018,07,16,14,30,26.30
2018,07,16,14,31,26.40
2018,07,16,14,32,26.40
2018,07,16,14,33,26.50
2018,07,16,14,34,26.60
2018,07,16,14,35,26.70
2018,07,16,14,36,26.90
2018,07,16,14,37,27.00
2018,07,16,14,38,27.10
2018,07,16,14,39,27.20
2018,07,16,14,40,27.20
2018,07,16,14,41,27.10
2018,07,16,14,42,27.10
2018,07,16,14,43,27.00
2018,07,16,14,44,26.90
2018,07,16,14,45,26.90
2018,07,16,14,46,26.80
2018,07,16,14,47,26.80
2018,07,16,14,48,27.00
2018,07,16,14,49,27.10
2018,07,16,14,50,27.20
2018,07,16,14,51,27.30
2018,07,16,14,52,27.50
2018,07,16,14,53,27.60
2018,07,16,14,54,27.80
2018,07,16,14,55,27.90
2018,07,16,14,56,28.10
2018,07,16,14,57,28.20
2018,07,16,14,58,28.40
2018,07,16,14,59,28.50
2018,07,16,15,00,28.70
2018,07,16,15,01,28.80
2018,07,16,15,02,28.80
2018,07,16,15,03,28.90
2018,07,16,15,04,28.90
2018,07,16,15,05,28.90
2018,07,16,15,06,28.90
2018,07,16,15,07,28.90
2018,07,16,15,08,28.90
2018,07,16,15,09,28.90
2018,07,16,15,10,28.80
2018,07,16,15,11,28.80
2018,07,16,15,12,28.80
2018,07,16,15,13,28.80
2018,07,16,15,14,28.80
2018,07,16,15,15,28.90
2018,07,16,15,16,28.90
2018,07,16,15,17,28.90
2018,07,16,15,18,28.90
2018,07,16,15,19,28.90
2018,07,16,15,20,29.00
2018,07,16,15,21,29.10
2018,07,16,15,22,29.30
2018,07,16,15,23,29.40
2018,07,16,15,24,29.50
2018,07,16,15,25,29.50
2018,07,16,15,26,29.40
2018,07,16,15,27,29.30
2018,07,16,15,28,29.20
2018,07,16,15,29,29.20
2018,07,16,15,30,29.10
2018,07,16,15,31,29.00
2018,07,16,15,32,28.90
2018,07,16,15,33,28.90
2018,07,16,15,34,28.90
2018,07,16,15,35,28.90
2018,07,16,15,36,28.90
2018,07,16,15,37,28.90
2018,07,16,15,38,29.00
2018,07,16,15,39,29.20
2018,07,16,15,40,29.30
2018,07,16,15,41,29.40
2018,07,16,15,42,29.30
2018,07,16,15,43,29.20
2018,07,16,15,44,29.20
2018,07,16,15,45,29.20
2018,07,16,15,46,29.20
2018,07,16,15,47,29.30
2018,07,16,15,48,29.40
2018,07,16,15,49,29.60
2018,07,16,15,50,29.70
2018,07,16,15,51,29.70
2018,07,16,15,52,29.70
2018,07,16,15,53,29.70
2018,07,16,15,54,29.70
2018,07,16,15,55,29.70
2018,07,16,15,56,29.50
2018,07,16,15,57,29.40
2018,07,16,15,58,29.40
2018,07,16,15,59,29.40
2018,07,16,16,00,29.30
2018,07,16,16,01,29.30
2018,07,16,16,02,29.30
2018,07,16,16,03,29.40
2018,07,16,16,04,29.40
2018,07,16,16,05,29.50
2018,07,16,16,06,29.50
2018,07,16,16,07,29.50
2018,07,16,16,08,29.50
2018,07,16,16,09,29.30
2018,07,16,16,10,29.20
2018,07,16,16,11,29.10
2018,07,16,16,12,29.10
2018,07,16,16,13,29.00
2018,07,16,16,14,28.90
2018,07,16,16,15,28.90
2018,07,16,16,16,28.90
2018,07,16,16,17,28.90
2018,07,16,16,18,28.90
2018,07,16,16,19,29.00
2018,07,16,16,20,29.10
2018,07,16,16,21,29.10
2018,07,16,16,22,29.10
2018,07,16,16,23,29.10
2018,07,16,16,24,29.20
2018,07,16,16,25,29.30
2018,07,16,16,26,29.40
2018,07,16,16,27,29.50
2018,07,16,16,28,29.30
2018,07,16,16,29,29.10
2018,07,16,16,30,28.90
2018,07,16,16,31,28.80
2018,07,16,16,32,28.70
2018,07,16,16,33,28.60
2018,07,16,16,34,28.60
2018,07,16,16,35,28.60
2018,07,16,16,36,28.70
2018,07,16,16,37,28.70
2018,07,16,16,38,28.80
2018,07,16,16,39,28.90
2018,07,16,16,40,28.90
2018,07,16,16,41,28.90
2018,07,16,16,42,28.90
2018,07,16,16,43,29.00
2018,07,16,16,44,29.10
2018,07,16,16,45,29.20
2018,07,16,16,46,29.30
2018,07,16,16,47,29.40
2018,07,16,16,48,29.40
2018,07,16,16,49,29.50
2018,07,16,16,50,29.50
2018,07,16,16,51,29.50
2018,07,16,16,52,29.50
2018,07,16,16,53,29.60
2018,07,16,16,54,29.60
2018,07,16,16,55,29.70
2018,07,16,16,56,29.60
2018,07,16,16,57,29.50
2018,07,16,16,58,29.50
2018,07,16,16,59,29.50
2018,07,16,17,00,29.50
2018,07,16,17,01,29.50
2018,07,16,17,02,29.40
2018,07,16,17,03,29.50
2018,07,16,17,04,29.50
2018,07,16,17,05,29.50
2018,07,16,17,06,29.40
2018,07,16,17,07,29.30
2018,07,16,17,08,29.20
2018,07,16,17,09,29.10
2018,07,16,17,10,29.20
2018,07,16,17,11,29.20
2018,07,16,17,12,29.20
2018,07,16,17,13,29.20
2018,07,16,17,14,29.20
2018,07,16,17,15,29.20
2018,07,16,17,16,29.20
2018,07,16,17,17,29.10
2018,07,16,17,18,29.10
2018,07,16,17,19,29.10